Simultaneous Nadir Overpasses (SNOs) Predictions

Prediction of SNOs between GOES-17 and NPP Satellite Orbit:

Table of predicted SNOs for the next 14.0 days since TLE Epoch: 11/2/2024
Index Date Time (GOES-17) GOES-17 Lat,Lon NPP Lat,Lon Distance(km) Time Diff (sec)
1 11/03/2024 08:32:21 -0.01,-104.69 0.41,-106.49 205.65 80
2 11/04/2024 08:10:57 -0.00,-104.68 -0.62,-101.96 310.23 80
3 11/05/2024 20:32:52 0.00,-104.66 -0.61,-107.26 296.05 80
4 11/06/2024 20:16:48 0.01,-104.66 0.43,-102.73 219.90 80
5 11/08/2024 08:38:35 -0.01,-104.66 0.74,-108.00 379.88 80
6 11/09/2024 08:17:09 -0.01,-104.65 -0.25,-103.46 135.71 80
7 11/10/2024 20:39:05 0.01,-104.63 -0.94,-108.76 471.03 80
8 11/11/2024 20:23:00 0.01,-104.63 0.12,-104.23 45.33 80
9 11/14/2024 08:26:01 -0.00,-104.63 0.06,-104.96 36.90 80
10 11/15/2024 08:04:36 -0.00,-104.62 -0.96,-100.42 479.00 80
